Orbital Elements
Epoch 2019 Oct. 4.0 TT = JDT 2458760.5
T 2019 Sept. 30.79343 TT MPCW
q 1.9463095 (2000.0) P Q
n 0.15534722 Peri. 56.19244 -0.99609600 -0.00217808
a 3.4271549 Node 123.53342 -0.02823536 -0.93931847
e 0.4320917 Incl. 6.07732 +0.08363928 -0.34303947
P 6.34
From 812 observations 2000 Jan. 4-2019 Jan. 11, mean residual 0".6.
Nongravitational parameters A1 = +0.54, A2 = +0.0097.
|